Lapse_Rate
6.6 6.0 6.7 7.0 6.6 6.5 6.6 6.3 6.4 6.3 6.4 6.3 6.4 6.7 7.1 6.7 7.1 7.3 7.2 7.2 7.3 7.2 7.0 6.7 6.6 6.4 6.3 6.2 6.3 6.3 6.3 6.1 6.0 6.0 6.2 6.2 6.4 6.6 6.7 6.7 6.9 6.9 7.0 7.0
6.5 6.7 6.8 6.2 6.3 6.3 6.4 6.5 6.6 6.1 6.4 6.1 6.3 6.6 7.2 7.0 7.1 7.3 7.5 7.4 7.2 7.1 7.3 6.8 6.5 6.3 6.2 6.2 6.3 6.3 6.2 6.1 6.1 6.1 6.2 6.3 6.4 6.6 6.7 6.9 6.9 6.8 7.0 7.0
6.5 6.7 6.7 6.6 6.3 6.3 6.3 6.3 6.4 6.1 6.4 6.3 6.3 6.7 7.3 7.5 7.6 7.6 7.6 7.8 7.6 7.2 7.6 7.0 6.4 6.2 6.1 6.2 6.3 6.3 6.2 6.1 6.2 6.2 6.2 6.2 6.3 6.3 6.6 6.7 6.8 7.0 7.0 6.9
6.4 6.6 6.6 6.4 6.5 6.4 6.2 6.4 6.4 6.3 6.1 5.9 6.1 4.9 7.0 7.3 7.5 7.8 7.8 7.8 7.7 7.5 7.5 7.0 6.5 6.2 6.1 6.2 6.3 6.2 6.2 6.3 6.3 6.2 6.1 6.1 6.2 6.5 6.4 6.5 6.8 7.0 7.0 6.9
6.6 7.0 6.9 6.7 6.6 6.5 6.4 6.5 6.4 6.4 6.0 5.7 6.1 5.6 6.8 7.1 7.5 8.0 8.0 7.6 7.6 7.5 7.2 6.9 6.4 6.1 6.2 6.2 6.2 6.1 6.2 6.2 6.2 6.2 6.1 6.1 6.1 6.1 6.3 6.5 6.7 6.9 7.1 7.0
6.2 6.6 6.8 6.7 6.8 6.3 6.6 6.4 6.3 6.1 5.6 3.9 6.5 6.3 6.0 7.4 7.6 7.8 7.8 7.6 7.5 7.3 7.1 6.7 6.5 6.3 6.2 6.2 6.1 6.1 6.1 6.2 6.1 6.1 6.1 5.9 5.8 6.0 6.3 6.6 6.8 7.0 7.1 7.0
6.1 6.3 6.4 6.7 6.9 6.4 6.2 6.2 5.2 4.5 3.9 3.7 6.1 5.6 6.8 7.4 7.4 7.6 7.7 7.5 7.3 7.1 6.9 6.7 6.5 6.2 6.2 6.0 6.0 6.0 6.1 6.0 6.0 6.0 5.8 5.7 5.7 6.0 6.2 6.5 6.8 7.2 7.3 7.1
6.1 5.7 6.7 6.5 6.8 7.0 7.0 6.3 6.6 4.8 4.8 4.5 5.2 5.1 7.4 7.7 7.7 7.5 7.5 7.4 7.1 6.9 6.7 6.5 6.4 6.3 6.1 5.9 5.9 6.1 6.0 6.0 5.9 5.8 5.5 5.5 5.7 5.9 6.1 6.4 6.7 7.0 7.0 6.8
6.3 6.2 6.3 6.3 6.4 6.4 6.1 6.1 6.6 6.2 5.8 5.0 6.5 6.8 7.5 7.5 7.8 7.5 7.3 7.3 7.1 6.7 6.6 6.5 6.5 6.3 6.3 6.1 6.0 5.9 5.9 5.8 5.7 5.5 5.5 5.4 5.5 5.5 6.0 6.4 6.9 7.0 6.7 6.7
6.2 6.0 5.9 5.8 5.7 5.7 6.0 6.1 6.1 6.2 4.7 4.3 5.7 6.4 7.4 8.0 7.8 7.6 7.4 7.2 7.0 6.7 6.4 6.4 6.4 6.4 6.3 6.1 6.1 6.0 5.9 5.8 5.6 5.5 5.3 5.4 5.2 5.6 6.2 6.7 6.7 6.6 6.6 6.7
5.7 5.4 5.1 5.7 5.6 6.2 5.7 5.4 6.2 6.4 6.3 4.7 4.7 6.3 7.7 8.0 7.8 7.9 7.5 7.2 7.1 6.8 6.7 6.6 6.6 6.4 6.2 6.2 6.2 6.1 5.9 5.7 5.5 5.4 5.3 5.2 5.3 6.0 6.4 6.4 6.2 6.2 6.5 6.4
6.3 5.8 5.2 5.6 5.8 5.6 5.8 5.5 5.8 6.3 5.7 6.2 5.5 6.3 7.8 7.8 8.0 7.6 7.2 6.9 6.7 6.5 6.8 6.8 6.8 6.4 6.2 6.2 6.1 5.9 5.8 5.6 5.4 5.3 5.3 5.4 5.9 6.3 6.2 6.1 6.0 6.1 6.2 6.0
6.4 5.6 5.6 5.3 5.3 5.3 4.9 5.3 5.5 5.7 5.7 5.5 5.1 5.9 7.8 8.0 7.8 7.7 7.3 6.8 6.3 6.6 6.7 6.7 6.6 6.3 6.1 6.1 6.0 5.8 5.7 5.6 5.4 5.3 5.4 6.1 6.5 6.2 6.2 6.1 6.0 5.9 5.7 5.8
6.3 5.6 6.0 5.9 6.2 6.0 5.3 5.7 5.9 5.7 5.3 5.3 5.5 6.7 7.6 7.8 7.8 7.3 7.0 6.6 6.3 6.8 6.8 6.7 6.5 6.2 6.1 6.1 6.0 5.7 5.7 5.6 5.4 5.5 5.8 6.5 6.4 6.1 6.2 5.9 5.8 5.8 5.6 5.7
5.8 5.8 5.9 6.1 6.0 5.6 5.5 5.9 5.7 5.5 5.7 5.5 5.7 6.2 7.4 7.6 7.5 7.0 6.7 6.7 6.4 6.6 6.5 6.6 6.5 6.3 6.1 6.1 5.9 5.8 5.8 5.6 5.4 5.6 6.1 6.4 6.2 6.1 6.1 5.9 6.0 5.7 5.5 5.6
6.0 5.9 5.8 5.6 5.9 5.7 5.4 5.4 5.3 5.2 5.3 4.7 5.1 5.8 6.7 7.3 7.3 6.9 6.8 6.3 6.4 6.5 6.7 6.6 6.4 6.3 6.1 6.1 6.0 5.9 5.9 5.6 5.5 5.6 6.2 6.3 6.1 6.2 6.1 6.0 6.0 5.8 5.6 5.5
6.5 6.0 5.6 5.2 5.7 5.1 4.4 5.6 5.6 5.4 5.5 5.9 5.1 6.7 7.2 7.3 7.1 6.9 6.4 5.9 6.4 6.4 6.6 6.6 6.3 6.3 6.2 6.2 6.1 5.9 5.9 5.6 5.5 5.7 6.3 6.4 6.2 6.5 6.2 6.1 6.1 5.9 5.6 5.2
6.1 6.2 5.8 5.9 5.4 5.0 6.0 6.6 6.2 5.9 6.0 6.0 6.0 6.4 6.9 7.0 6.5 6.3 6.3 6.4 6.8 6.5 6.5 6.5 6.4 6.3 6.2 6.1 6.1 5.9 5.9 5.6 5.5 5.8 6.3 6.0 6.3 6.5 6.3 6.3 6.4 6.6 6.5 5.7
6.0 6.1 6.0 6.0 5.4 6.2 6.4 6.4 6.7 6.1 6.2 6.0 5.6 6.0 6.6 6.3 5.9 6.4 6.6 6.7 6.4 6.5 6.5 6.4 6.3 6.2 6.3 6.1 6.0 5.9 5.9 5.6 5.4 5.8 6.2 6.0 6.0 6.2 6.3 6.3 6.2 6.7 7.1 6.8
6.2 6.0 6.1 5.7 5.5 4.3 6.5 6.9 6.9 6.1 5.6 6.1 5.7 6.6 6.0 6.1 6.2 6.4 6.6 6.5 6.4 6.3 6.3 6.3 6.2 6.2 6.3 6.2 6.1 5.9 5.9 5.7 5.5 5.8 6.0 5.9 5.8 6.1 6.5 6.4 6.4 6.6 6.7 6.6
5.6 5.7 5.9 5.6 5.5 5.8 6.6 6.5 6.7 6.2 6.8 6.5 6.1 6.5 6.6 6.4 5.9 6.2 6.5 6.4 6.4 6.3 6.2 6.3 6.3 6.1 6.1 6.1 6.1 5.8 5.9 5.7 5.7 5.8 5.9 5.9 5.6 6.0 6.3 6.5 6.5 6.4 6.4 6.5
6.2 5.8 5.6 5.7 5.5 4.8 6.5 7.1 6.9 7.0 6.9 6.7 6.2 6.5 6.2 5.7 5.8 6.1 6.4 6.3 6.3 6.2 6.2 6.3 6.3 6.1 6.0 5.9 5.9 5.8 5.6 5.8 5.7 5.8 5.9 5.9 5.7 5.7 6.0 6.2 6.3 6.4 6.5 6.6
6.2 6.6 6.4 6.4 6.0 7.3 7.5 7.5 7.2 6.8 6.7 6.5 6.2 6.2 6.0 6.0 6.1 6.3 6.5 6.4 6.4 6.2 6.2 6.3 6.3 6.2 6.0 5.8 5.7 5.7 5.5 5.8 5.7 5.8 5.9 5.9 5.9 5.9 5.7 5.8 6.0 6.1 6.2 6.2
6.6 6.7 6.5 6.6 6.7 7.0 7.8 7.4 7.2 7.0 6.4 6.2 6.0 5.7 6.0 6.2 6.3 6.4 6.5 6.3 6.2 6.3 6.2 6.2 6.2 6.2 6.1 5.9 5.9 5.7 5.7 5.8 5.7 5.8 6.0 5.9 5.8 5.9 6.0 6.0 6.1 6.1 6.1 5.9
5.0 5.7 6.0 6.3 6.7 7.3 7.5 7.5 7.4 7.2 6.9 6.4 6.3 6.2 6.1 6.5 6.5 6.5 6.5 6.2 6.3 6.3 6.3 6.3 6.3 6.4 6.3 6.3 6.3 6.0 5.9 5.9 5.9 5.8 6.0 6.1 6.0 5.8 5.8 5.9 6.0 6.0 5.9 5.8
5.4 5.1 5.3 5.4 6.2 7.0 7.8 7.7 7.4 6.8 6.9 6.3 6.5 6.4 6.4 6.5 6.5 6.9 6.8 6.5 6.5 6.5 6.4 6.4 6.4 6.5 6.5 6.6 6.6 6.4 6.1 5.9 5.9 6.0 6.0 5.9 6.2 6.1 6.0 6.0 6.0 6.1 6.0 5.8
Wind_Speed
5 5 9 9 10 8 4 4 5 6 3 3 10 15 13 10 11 10 10 9 10 9 9 9 7 7 7 6 4 5 2 3 3 2 3 2 3 4 4 4 9 10 10 10
3 11 9 3 5 11 2 4 7 2 6 2 6 13 15 12 11 15 14 10 9 9 10 9 8 8 6 6 5 4 3 4 3 2 2 2 3 3 4 5 8 12 10 9
6 1 4 3 2 3 4 7 5 2 4 7 6 8 6 3 3 1 1 7 9 10 13 10 9 8 7 6 5 3 3 3 3 2 2 3 3 3 3 4 4 4 9 9
8 3 4 3 4 6 4 1 3 3 1 3 4 5 5 6 7 6 6 7 8 9 11 10 9 8 7 5 5 2 3 2 1 2 2 4 3 5 4 5 4 6 9 8
3 5 5 4 2 8 2 2 2 1 3 3 4 1 7 4 7 8 9 8 9 10 11 10 10 8 7 6 4 2 2 0 2 3 3 3 5 4 4 5 7 7 7 9
2 1 3 1 4 3 7 4 2 1 1 1 9 6 4 5 5 7 9 7 8 9 9 9 8 8 5 6 4 2 1 1 3 3 4 4 6 6 7 8 8 7 8 9
3 3 2 2 5 2 4 3 1 2 1 5 3 0 8 3 0 6 10 10 10 9 9 9 9 7 7 7 5 3 2 1 3 4 4 5 6 6 7 7 8 10 8 8
6 5 9 7 2 5 7 4 3 7 4 3 3 6 6 4 7 8 8 10 9 10 9 9 9 8 8 7 5 3 1 2 3 4 5 5 6 3 4 6 8 8 9 9
6 4 2 3 3 2 5 4 1 4 1 3 5 7 5 6 4 6 6 4 7 9 9 10 9 8 7 6 5 3 1 0 2 3 3 4 5 5 6 9 10 8 10 10
2 2 1 3 0 2 1 3 3 2 3 4 4 4 6 8 9 9 9 9 8 7 9 9 8 8 7 6 5 4 2 1 2 3 3 4 5 6 6 7 9 11 11 11
5 6 3 4 7 8 3 2 2 1 2 4 1 6 4 8 11 13 11 9 9 9 8 8 8 8 8 6 5 4 3 2 3 3 4 5 5 6 6 7 9 10 12 11
1 3 4 8 4 2 3 6 6 4 5 3 2 6 2 4 7 9 8 8 6 8 7 7 9 9 8 7 5 4 2 0 2 3 4 5 6 6 7 7 10 10 11 11
5 3 2 1 1 1 5 6 4 3 1 6 5 5 2 2 5 6 8 7 5 6 6 5 8 7 7 7 6 5 3 2 1 2 4 5 6 6 6 6 9 9 9 10
7 2 5 6 2 4 5 8 12 7 4 5 9 4 2 3 5 4 4 6 7 7 7 5 7 7 7 6 5 5 4 2 0 3 4 5 5 6 7 7 8 9 8 9
5 5 2 11 5 2 3 4 13 16 16 10 5 14 13 6 8 8 8 5 4 7 6 6 6 6 6 6 5 4 3 3 1 1 3 5 6 5 6 5 7 9 8 8
1 2 3 6 12 9 11 11 11 17 16 15 16 16 7 7 6 5 8 4 8 8 8 7 7 7 8 8 7 6 5 4 2 1 4 5 4 6 6 6 7 8 9 8
7 5 4 4 1 3 9 18 20 8 7 12 16 14 3 7 10 9 7 8 10 9 8 8 9 10 9 9 7 7 6 3 3 3 4 4 3 6 6 6 7 8 10 8
9 5 6 1 2 5 6 3 15 23 16 17 3 4 12 15 5 4 5 7 9 8 8 7 7 6 7 5 5 5 4 4 4 3 4 4 2 4 5 4 5 7 8 8
5 7 3 3 3 6 6 5 7 9 11 20 16 17 17 5 2 8 11 9 8 7 7 6 6 5 6 8 6 6 4 4 4 4 5 4 1 4 4 5 4 4 5 5
5 2 6 3 4 6 2 2 1 3 4 2 11 20 9 9 4 4 2 4 4 5 3 4 5 4 7 6 7 7 6 6 7 6 6 4 2 3 4 5 4 3 3 4
4 2 10 6 4 7 4 3 4 3 5 2 3 5 10 7 4 3 3 2 3 5 7 4 4 8 8 7 8 7 6 10 6 5 4 4 3 3 3 5 3 3 3 3
10 8 5 4 5 11 5 5 6 2 2 5 4 3 7 5 6 4 5 3 5 5 3 5 6 6 5 7 9 7 9 7 6 6 5 4 4 2 1 3 4 3 3 4
5 6 6 9 7 1 7 1 5 0 3 2 6 3 5 4 4 3 1 3 4 6 6 5 6 6 6 7 9 10 9 6 6 6 5 4 4 3 3 2 2 3 3 2
3 2 3 2 7 9 7 6 5 5 2 4 4 3 3 3 3 5 3 4 4 4 4 5 6 7 8 10 12 14 6 7 7 7 6 5 5 5 4 2 1 1 1 2
4 8 3 5 7 5 7 10 6 9 7 4 3 5 8 6 6 5 4 5 5 6 3 5 7 8 11 9 12 11 9 9 8 8 7 6 4 4 4 3 3 2 2 2
5 6 3 3 7 5 5 4 7 9 8 8 6 4 5 5 7 4 6 5 4 4 3 4 7 8 10 8 11 10 11 12 10 9 7 7 5 4 3 3 1 2 4 2
Wind_Direction
200 210 218 203 219 235 57 323 307 87 90 219 231 259 256 247 204 203 221 207 200 171 149 142 143 131 132 133 136 101 79 51 38 359 341 334 309 319 309 299 310 311 303 301
151 235 230 266 216 234 228 269 265 74 136 158 280 275 268 242 225 199 200 223 205 158 139 147 152 153 167 151 146 111 80 48 28 29 341 285 309 284 290 288 278 270 268 269
210 162 99 174 166 173 227 221 245 162 188 226 296 275 234 207 198 120 223 197 209 176 155 156 167 168 163 171 114 94 70 46 34 15 318 310 302 303 309 309 316 314 313 309
237 183 160 177 220 174 225 104 104 112 183 243 182 277 282 184 200 198 213 225 219 169 148 155 173 170 161 132 113 116 70 32 341 357 337 323 299 305 303 308 302 313 305 293
197 162 191 181 214 176 199 91 123 133 240 33 223 111 268 96 207 190 191 204 187 151 147 161 166 164 135 126 133 155 107 339 9 354 354 325 304 296 307 305 310 312 312 308
64 343 297 41 62 12 140 105 116 283 253 317 221 172 268 195 226 172 157 182 157 150 148 143 146 130 145 138 172 153 129 346 21 359 341 327 315 320 318 313 309 308 307 304
139 189 103 182 89 42 211 148 93 338 1 225 14 116 247 202 289 152 156 170 169 157 154 164 153 154 187 158 155 192 159 326 12 352 341 345 328 314 306 307 306 306 300 295
177 256 169 188 217 193 194 194 190 199 193 208 75 230 254 32 120 84 118 162 163 165 166 169 175 169 155 155 175 187 75 11 358 352 345 329 312 303 303 300 299 295 292 290
186 203 88 25 20 35 184 201 185 101 97 65 205 263 266 145 143 131 147 148 176 172 169 167 157 149 152 171 182 177 176 48 356 347 330 316 313 311 296 295 295 297 294 296
300 123 221 124 23 130 148 298 97 314 170 246 273 264 238 202 190 187 185 191 198 188 166 167 160 156 158 169 176 173 143 61 6 336 327 324 312 298 298 305 303 303 306 305
178 155 110 119 204 181 142 266 247 125 210 190 188 255 214 202 186 184 188 187 187 177 179 169 160 159 161 168 177 163 88 28 331 334 336 331 312 308 315 310 311 307 306 302
223 151 184 207 131 340 207 198 200 160 236 235 143 268 339 40 143 153 167 164 150 151 163 169 163 157 163 180 173 151 149 249 302 336 345 326 312 312 304 303 306 310 307 305
169 210 183 256 330 186 213 194 213 100 112 205 154 255 344 37 84 96 135 150 167 174 173 162 151 168 173 182 173 166 178 225 313 357 352 318 304 300 293 290 309 314 312 303
141 203 204 190 112 120 193 200 196 174 185 171 217 273 243 215 192 159 191 199 201 205 207 197 182 181 181 167 165 172 191 199 251 16 334 305 292 295 295 296 308 313 302 304
157 203 219 269 260 245 244 186 199 210 220 200 212 216 240 201 202 206 206 212 235 245 226 203 192 187 173 172 176 175 192 211 184 67 291 279 280 287 291 302 319 308 306 315
274 218 188 263 244 220 240 228 214 220 230 256 272 269 234 253 209 190 209 184 240 236 233 219 201 186 195 193 193 188 198 212 167 207 261 275 305 302 313 318 319 321 321 324
154 159 140 254 319 151 281 231 219 195 194 203 229 238 249 246 248 230 221 206 229 231 219 214 204 199 197 194 181 191 192 181 190 223 267 279 316 320 326 321 324 342 337 336
159 180 173 191 178 221 234 257 217 216 220 214 211 203 206 226 232 229 214 200 220 219 225 225 204 190 187 171 163 141 147 199 191 234 257 265 339 311 313 321 316 343 347 353
168 185 173 187 219 301 288 193 166 172 244 226 226 240 231 174 150 267 227 208 218 205 222 213 187 170 158 168 160 153 183 214 185 228 238 243 155 298 306 316 306 304 326 329
190 243 178 141 240 224 292 143 112 144 299 335 225 233 178 143 186 249 207 178 188 199 194 194 169 149 160 174 156 163 204 215 211 217 220 228 183 269 296 289 298 279 301 304
158 190 204 194 236 283 233 165 74 111 232 124 308 201 143 165 206 183 148 123 171 184 190 169 170 186 189 155 159 187 200 224 205 188 179 223 210 237 251 295 290 303 313 336
168 169 192 193 206 254 143 77 184 209 316 129 69 48 141 123 152 177 186 191 189 203 209 186 178 204 185 166 171 192 216 220 178 180 181 220 222 222 320 295 306 326 346 1
199 183 178 193 213 272 208 186 214 14 225 106 115 140 154 193 189 157 220 240 229 215 212 185 197 200 191 189 190 203 226 182 181 178 197 195 215 208 213 196 305 326 349 23
321 235 233 104 233 229 212 248 223 205 228 128 99 133 196 241 271 267 274 269 256 238 216 181 184 212 214 201 205 219 185 179 179 191 198 196 198 197 192 240 205 156 23 357
265 323 203 272 294 312 250 232 197 212 217 208 225 218 232 233 257 245 256 254 250 245 210 172 197 220 229 200 211 208 193 168 190 199 185 199 201 201 193 181 179 195 234 167
191 209 228 255 220 218 266 247 176 188 198 211 203 245 243 207 243 259 268 259 243 238 228 208 221 225 237 207 216 203 194 182 185 199 198 191 186 192 191 181 206 221 176 221